Other Public Products
Issued by NWS Grand Forks, ND

Home | Current Version | Previous Version | Text Only | Print | Product List | Glossary Off
Versions: 1 2 3 4 5 6 7 8 9 10 11 12 13 14 15 16 17 18 19 20 21 22 23 24 25 26 27 28 29 30 31 32 33 34 35 36 37 38 39 40 41 42 43 44 45 46 47 48 49 50

381
FPUS83 KFGF 201410
OPUFGF
PRAIRIE TO PINES WEATHER ROUNDUP
NATIONAL WEATHER SERVICE EASTERN NORTH DAKOTA/GRAND FORKS ND
900 AM CDT FRI OCT 20 2017

 **SATELLITE DATA USED TO AUGMENT SKY COVER AT AUTOMATED STATIONS**
 *****  WEATHER ACROSS EASTERN NORTH DAKOTA  *****

CITY           SKY/WX    TMP DP  RH WIND       PRES   REMARKS
GRAND FORKS    FAIR      53  48  83 S14       29.56F
GRAND FORKS AF FAIR      50  47  89 S13       29.55F
GRAND CITY NWS NOT AVBL
BUXTON         NOT AVBL
DEVILS LAKE    FAIR      48  45  89 SE10      29.50F
FARGO          FAIR      59  49  69 S17G29    29.60F
WAHPETON ARPT  NOT AVBL
$$

 *****  WEATHER ACROSS CENTRAL AND WESTERN NORTH DAKOTA  *****

CITY           SKY/WX    TMP DP  RH WIND       PRES   REMARKS
JAMESTOWN      FAIR      52  46  80 S21       29.52F
BISMARCK       FAIR      55  48  77 S9        29.47S
MINOT          FAIR      36  33  89 CALM      29.40F
MINOT AFB      FAIR      34  31  91 SE3       29.39F
GARRISON         N/A     41  40  96 E5        29.42F
WILLISTON      FAIR      35  30  82 CALM      29.38F
DICKINSON      FAIR      47  27  45 S6        29.41F
HETTINGER      FAIR      49  27  42 CALM      29.47F
$$

 *****  OTHER OBSERVATIONS NORTHEAST NORTH DAKOTA  *****

CITY           SKY/WX    TMP DP  RH WIND       PRES   REMARKS
WALHALLA       FAIR     N/A N/A N/A SE10      29.53S
LANGDON        FAIR      45  43  93 SE10      29.52F
CAVALIER       FAIR      46  46 100 S13       29.54F
GRAFTON        FAIR      46  46 100 SE9       29.57F
CANDO          FAIR      43  43 100 SE8       29.50F
FORT TOTTEN      N/A     49  45  85 SE9       29.95S
ROLLA          MIX PCPN  37  36  93 CALM      29.48F
RUGBY          FAIR      45  41  87 SE12      29.45F
 ***** THE ABOVE OBSERVATIONS ARE NON NWS ARE NOT QUALITY
        CONTROLLED AND MAY MIS-REPORT RAIN FOR SNOW...
$$

 *****  OTHER OBSERVATIONS SOUTHEAST NORTH DAKOTA *****

CITY           SKY/WX    TMP DP  RH WIND       PRES   REMARKS
COOPERSTOWN    FAIR      52  48  87 SE13      29.54F
VALLEY CITY    FAIR      57  50  77 S15G23    29.57F
OAKES          NOT AVBL
GWINNER        SUNNY     61  48  63 S14       29.60R
SHEYENNE NWR     N/A     53  50  88 SE8       29.95S
BUFFALO        NOT AVBL
WYNDMERE       NOT AVBL
 ***** THE ABOVE OBSERVATIONS ARE NON NWS ARE NOT QUALITY
       CONTROLLED AND MAY MIS-REPORT RAIN FOR SNOW...
$$

  *****  WEATHER ACROSS NORTHERN MINNESOTA  *****

CITY           SKY/WX    TMP DP  RH WIND       PRES   REMARKS
FLAG ISLAND    FAIR      52  46  82 SE15      29.65S
WARROAD        FAIR      52  46  82 SE8       29.65F
ROSEAU         FAIR      52  46  82 SE7       29.63S
HALLOCK        FAIR      54  46  76 SE13      29.56F
THF RVR FALLS  FAIR      53  48  83 SE9       29.63F
HALSTAD        NOT AVBL
FOSSTON        FAIR      61  46  59 S10       29.65S
BAUDETTE       FAIR      49  45  86 SE6       29.68F
WASKISH        FAIR      55  48  76 SE7       29.69F
CROOKSTON      FAIR      57  48  72 S16       29.59F
$$
  *****  WEATHER ACROSS CENTRAL AND WEST MINNESOTA  *****

CITY           SKY/WX    TMP DP  RH WIND       PRES   REMARKS
BEMIDJI        FAIR      51  48  87 SE6       29.69F
PARK RAPIDS    FAIR      53  48  83 S10       29.72F
WADENA         FAIR      55  48  76 S8        29.73S
DETROIT LAKES  FAIR      55  48  76 S13       29.68F
MOORHEAD       FAIR      57  48  72 SE17      29.63S
FERGUS FALLS   FAIR      57  48  72 S15       29.69F
ELBOW LAKE     FAIR      55  49  78 SE15      29.72S
MORRIS MN      FAIR      54  48  82 S13       29.73S
STAPLES        FAIR      54  46  76 S12       29.75S
WHEATON        FAIR      55  46  71 SE16      29.69R
$$
  *****  WEATHER ELSEWHERE ACROSS MINNESOTA  *****

CITY           SKY/WX    TMP DP  RH WIND       PRES   REMARKS
DULUTH         FAIR      56  49  77 S13       29.84F
INTRNTL FALLS  FAIR      53  44  71 SE8       29.72F
ELY            FAIR      54  45  71 S9        29.81F
CLOQUET        FAIR      55  46  71 S8        29.84S
BRAINERD       FAIR      56  49  77 S13       29.79S
HIBBING        FAIR      45  41  86 SE3       29.81S
ALEXANDRIA     FAIR      59  48  67 S16       29.77S
SAINT CLOUD    FAIR      55  50  83 S12       29.83S
MINNEAPOLIS    FAIR      57  52  83 SE7       29.90S
$$

  *****  WEATHER ACROSS SOUTH DAKOTA  *****

CITY           SKY/WX    TMP DP  RH WIND       PRES   REMARKS
SIOUX FALLS    FAIR      58  51  78 S21G29    29.80F
BROOKINGS      FAIR      54  47  77 S20       29.76F
WATERTOWN      FAIR      53  49  86 S12       29.71F
HURON          FAIR      55  48  77 S17       29.68S
SISSETON         N/A     63  48  58 S15       29.64F
ABERDEEN       FAIR      56  48  74 S21       29.61F
MITCHELL       FAIR      58  48  69 S16       29.71F
PIERRE         FAIR      56  47  71 SE10      29.56F
MOBRIDGE       FAIR      58  48  69 S17       29.49F
RAPID CITY     FAIR      48  32  53 CALM      29.55F
$$

  *****  SOME WEATHER IN NEARBY STATES *****

CITY           SKY/WX    TMP DP  RH WIND       PRES   REMARKS
GLASGOW MT     FAIR      47  30  51 E13       29.33F
GREAT FALLS MT FAIR      58  17  20 S12       29.29F
CHEYENNE WY    FAIR      46  31  55 SW9       29.78F
SCOTTSBLUFF NE FAIR      40  32  73 CALM      29.69S
OMAHA NE       PTSUNNY   59  52  77 S17       29.95S
DES MOINES IA  PTSUNNY   59  52  77 S10       30.04R
DAVENPORT IA   FAIR      59  50  72 S9        30.16R
CHICAGO IL     FAIR      62  50  64 S6        30.17R
EAU CLAIRE WI  FAIR      57  49  74 S10       29.97R
LA CROSSE WI   FAIR      60  52  74 S6        30.02S
$$

  *****  SOME NATIONAL WEATHER *****

CITY           SKY/WX    TMP DP  RH WIND       PRES   REMARKS
LA GUARDIA NY  FAIR      63  40  42 NW12      30.17R
RALEIGH NC     FAIR      61  50  67 VRB3      30.29R
ATLANTA GA     FAIR      63  48  58 W3        30.30R
NEW ORLEANS LA CLOUDY    71  67  87 E8        30.15R
OKLAHOMA CITY  FAIR      60  56  86 S7        30.04S
ALBUQUERQUE NM FAIR      50  46  86 S7        30.03S
SALT LAKE CITY FAIR      65  32  29 S24       29.56F
LOS ANGELES CA FAIR      64  58  80 W20       29.92R
BOISE ID       LGT RAIN  43  32  65 NW10      29.66R
SEATTLE WA     CLOUDY    48  45  89 S13G18    29.64R
$$

*** WEATHER ACROSS MANITOBA...SASKATCHEWAN AND ONTARIO ***
                ***ONTARIO***

CITY           SKY/WX    TMP DP  RH WIND       PRES   REMARKS
GERALDTON      MOSUNNY   45  39  81 S3        29.86F
THUNDER BAY    MOSUNNY   39  36  87 W2        29.87S
SIOUX LOOKOUT  MOSUNNY   50  39  66 S6        29.75S
TORONTO        SUNNY     59  41  51 CALM      30.24S
BIG TROUT LK   CLOUDY    36  36 100 SE10G20   29.88F
PICKLE LAKE    MOSUNNY   36  28  75 E6        29.78S
DRYDEN         SUNNY     50  39  66 SE8       29.73F
KENORA         PTCLDY    50  43  76 S9        29.68S
$$
                *** MANITOBA***

CITY           SKY/WX    TMP DP  RH WIND       PRES   REMARKS
BRANDON        MOCLDY    45  37  76 E9        29.46F
DAUPHIN        CLEAR     39  34  81 N2        29.45F
ISLAND LAKE    MOCLDY    37  34  87 E10       29.70S
PILOT MOUND      N/A     45  39  81 SE9         N/A
THE PAS        CLOUDY    37  32  81 E8        29.53F
THOMPSON       CLOUDY    34  32  93 E7        29.72S
WINNIPEG       PTCLDY    48  45  87 SE12      29.55F
LYNN LAKE      FOG       32  32 100 E14G22    29.66S VSB 3/4 WCI  22
CHURCHILL      CLOUDY    32  27  80 SE8       29.97S WCI  25
GILLAM         CLOUDY    32  30  93 E9G17     29.86S WCI  24
$$
                ***SASKATCHEWAN***

CITY           SKY/WX    TMP DP  RH WIND       PRES   REMARKS
ESTEVAN        MOCLDY    43  34  70 E10       29.38F
KINDERSLEY     CLOUDY    46  34  61 E5        29.27F
LLOYDMINSTER   CLOUDY    41  36  81 SW8       29.26S
PRINCE ALBERT  CLOUDY    41  34  75 E10       29.36F
REGINA         MOCLDY    43  30  61 SE9       29.34S
YORKTON        CLEAR     41  34  75 SE8       29.40F



USA.gov is the U.S. government's official web portal to all federal, state and local government web resources and services.